DEMLR EDDK-EDFH

Flight info

Callsign DEMLR
Flight time 0h 35m
Altitude
Route
Aircraft DA40

Departure

Time 2026-04-25 13:17
Airport Cologne Bonn Airport (EDDK)

Arrival

Time 2026-04-25 13:52
Airport Frankfurt-Hahn Airport (EDFH)
Time Latitude Longitude Altitude Speed Heading
2026-04-25 13:06 50.87210 7.12445 229 ft 0 kts 272°
2026-04-25 13:09 50.87210 7.12444 229 ft 0 kts 271°
2026-04-25 13:10 50.87210 7.12439 229 ft 0 kts 256°
2026-04-25 13:10 50.87206 7.12437 229 ft 2 kts 152°
2026-04-25 13:10 50.87193 7.12457 229 ft 7 kts 131°
2026-04-25 13:11 50.87175 7.12480 229 ft 0 kts 236°
2026-04-25 13:11 50.87153 7.12441 229 ft 4 kts 230°
2026-04-25 13:11 50.87123 7.12404 228 ft 6 kts 181°
2026-04-25 13:11 50.87086 7.12435 228 ft 5 kts 133°
2026-04-25 13:12 50.87060 7.12476 229 ft 6 kts 138°
2026-04-25 13:12 50.87008 7.12551 229 ft 18 kts 137°
2026-04-25 13:12 50.86903 7.12703 231 ft 20 kts 137°
2026-04-25 13:12 50.86836 7.12801 231 ft 20 kts 137°
2026-04-25 13:13 50.86707 7.12986 233 ft 17 kts 137°
2026-04-25 13:13 50.86622 7.13109 235 ft 17 kts 136°
2026-04-25 13:13 50.86533 7.13238 240 ft 10 kts 141°
2026-04-25 13:13 50.86517 7.13266 240 ft 2 kts 140°
2026-04-25 13:14 50.86468 7.13333 242 ft 5 kts 137°
2026-04-25 13:14 50.86447 7.13363 243 ft 0 kts 133°
2026-04-25 13:14 50.86426 7.13397 243 ft 12 kts 138°
2026-04-25 13:14 50.86326 7.13405 246 ft 20 kts 232°
2026-04-25 13:15 50.86286 7.13277 244 ft 6 kts 260°
2026-04-25 13:15 50.86304 7.13219 242 ft 3 kts 317°
2026-04-25 13:15 50.86322 7.13192 242 ft 0 kts 321°
2026-04-25 13:15 50.86323 7.13191 242 ft 0 kts 315°
2026-04-25 13:16 50.86418 7.13053 241 ft 46 kts 318°
2026-04-25 13:16 50.86750 7.12563 309 ft 78 kts 314°
2026-04-25 13:16 50.87163 7.11924 548 ft 85 kts 309°
2026-04-25 13:17 50.87310 7.11058 801 ft 89 kts 256°
2026-04-25 13:17 50.86793 7.10495 1024 ft 104 kts 186°
2026-04-25 13:17 50.86024 7.10711 1142 ft 120 kts 163°
2026-04-25 13:17 50.85233 7.11174 1258 ft 121 kts 161°
2026-04-25 13:18 50.84467 7.11778 1298 ft 126 kts 152°
2026-04-25 13:18 50.83674 7.12398 1317 ft 128 kts 160°
2026-04-25 13:18 50.82840 7.12875 1335 ft 125 kts 168°
2026-04-25 13:18 50.82005 7.12917 1385 ft 118 kts 192°
2026-04-25 13:19 50.81191 7.12679 1380 ft 122 kts 196°
2026-04-25 13:19 50.80390 7.12227 1396 ft 122 kts 208°
2026-04-25 13:19 50.79651 7.11613 1420 ft 119 kts 214°
2026-04-25 13:19 50.79413 7.11381 1414 ft 120 kts 216°
2026-04-25 13:20 50.78505 7.10347 1428 ft 119 kts 223°
2026-04-25 13:20 50.77647 7.09235 1436 ft 118 kts 221°
2026-04-25 13:20 50.77037 7.08386 1442 ft 117 kts 224°
2026-04-25 13:20 50.76443 7.07480 1429 ft 118 kts 225°
2026-04-25 13:21 50.75812 7.06654 1457 ft 116 kts 221°
2026-04-25 13:21 50.75152 7.05917 1511 ft 113 kts 219°
2026-04-25 13:21 50.74521 7.05184 1564 ft 111 kts 221°
2026-04-25 13:21 50.73900 7.04457 1617 ft 110 kts 220°
2026-04-25 13:22 50.73272 7.03728 1664 ft 111 kts 220°
2026-04-25 13:22 50.72655 7.03021 1741 ft 109 kts 220°
2026-04-25 13:22 50.72044 7.02317 1791 ft 110 kts 220°
2026-04-25 13:23 50.70527 7.02137 2006 ft 118 kts 170°
2026-04-25 13:23 50.69690 7.02468 2022 ft 128 kts 168°
2026-04-25 13:23 50.68816 7.02809 2062 ft 131 kts 169°
2026-04-25 13:23 50.67892 7.03148 2037 ft 136 kts 170°
2026-04-25 13:24 50.66981 7.03469 1990 ft 135 kts 170°
2026-04-25 13:24 50.66082 7.03774 1994 ft 131 kts 172°
2026-04-25 13:24 50.65212 7.04071 1985 ft 129 kts 171°
2026-04-25 13:24 50.64334 7.04360 2007 ft 125 kts 171°
2026-04-25 13:25 50.63485 7.04642 2024 ft 122 kts 172°
2026-04-25 13:25 50.62653 7.04911 1982 ft 125 kts 171°
2026-04-25 13:25 50.61776 7.05189 2024 ft 132 kts 169°
2026-04-25 13:25 50.60853 7.05492 2060 ft 137 kts 170°
2026-04-25 13:26 50.59920 7.05795 2003 ft 137 kts 170°
2026-04-25 13:26 50.58981 7.06098 2089 ft 137 kts 172°
2026-04-25 13:26 50.58045 7.06398 2159 ft 139 kts 171°
2026-04-25 13:26 50.57092 7.06708 2247 ft 139 kts 172°
2026-04-25 13:27 50.56164 7.07008 2335 ft 137 kts 172°
2026-04-25 13:27 50.55225 7.07308 2432 ft 135 kts 171°
2026-04-25 13:27 50.54314 7.07600 2540 ft 134 kts 171°
2026-04-25 13:27 50.53388 7.07896 2668 ft 132 kts 172°
2026-04-25 13:28 50.52486 7.08185 2765 ft 134 kts 172°
2026-04-25 13:28 50.52192 7.08278 2809 ft 134 kts 172°
2026-04-25 13:28 50.50675 7.08763 3024 ft 133 kts 172°
2026-04-25 13:28 50.49753 7.09055 3137 ft 135 kts 172°
2026-04-25 13:29 50.48839 7.09348 3265 ft 135 kts 171°
2026-04-25 13:29 50.47911 7.09646 3396 ft 135 kts 171°
2026-04-25 13:29 50.46998 7.09938 3520 ft 135 kts 171°
2026-04-25 13:30 50.45173 7.10523 3783 ft 133 kts 172°
2026-04-25 13:30 50.44311 7.10797 3881 ft 131 kts 172°
2026-04-25 13:30 50.43458 7.11070 3891 ft 142 kts 172°
2026-04-25 13:31 50.41518 7.11682 4002 ft 144 kts 171°
2026-04-25 13:31 50.40530 7.11996 3966 ft 145 kts 171°
2026-04-25 13:31 50.39531 7.12310 3965 ft 146 kts 170°
2026-04-25 13:31 50.38553 7.12625 3974 ft 144 kts 171°
2026-04-25 13:32 50.37562 7.12939 3979 ft 143 kts 171°
2026-04-25 13:32 50.36588 7.13249 3958 ft 140 kts 171°
2026-04-25 13:32 50.35647 7.13548 3959 ft 138 kts 171°
2026-04-25 13:32 50.34717 7.13844 3961 ft 134 kts 172°
2026-04-25 13:33 50.33799 7.14132 3961 ft 132 kts 171°
2026-04-25 13:33 50.32908 7.14419 3965 ft 130 kts 172°
2026-04-25 13:33 50.32024 7.14698 3966 ft 130 kts 171°
2026-04-25 13:33 50.31422 7.14884 3953 ft 131 kts 171°
2026-04-25 13:34 50.30241 7.15258 3970 ft 131 kts 170°
2026-04-25 13:34 50.29343 7.15550 3985 ft 130 kts 172°
2026-04-25 13:34 50.28444 7.15832 3982 ft 130 kts 171°
2026-04-25 13:34 50.27548 7.16117 3978 ft 135 kts 171°
2026-04-25 13:35 50.26604 7.16410 3984 ft 142 kts 169°
2026-04-25 13:35 50.25637 7.16721 4019 ft 144 kts 171°
2026-04-25 13:35 50.24643 7.17040 4015 ft 146 kts 171°
2026-04-25 13:35 50.23622 7.17356 3992 ft 150 kts 170°
2026-04-25 13:36 50.22610 7.17675 3962 ft 148 kts 169°
2026-04-25 13:36 50.21608 7.17993 3978 ft 145 kts 170°
2026-04-25 13:36 50.20626 7.18307 3974 ft 144 kts 171°
2026-04-25 13:36 50.19654 7.18618 3979 ft 142 kts 172°
2026-04-25 13:37 50.18678 7.18919 3970 ft 143 kts 171°
2026-04-25 13:37 50.06858 7.20542 3967 ft 144 kts 167°
2026-04-25 13:37 50.06005 7.21323 3999 ft 142 kts 142°
2026-04-25 13:37 50.05234 7.22288 3960 ft 140 kts 153°
2026-04-25 13:38 50.04334 7.22440 3965 ft 127 kts 200°
2026-04-25 13:38 50.03679 7.21616 3937 ft 122 kts 245°
2026-04-25 13:38 50.03595 7.20396 3982 ft 112 kts 288°
2026-04-25 13:38 50.03898 7.19270 3984 ft 112 kts 298°
2026-04-25 13:39 50.04427 7.18418 3973 ft 112 kts 338°
2026-04-25 13:39 50.05209 7.18450 3964 ft 119 kts 20°
2026-04-25 13:39 50.05851 7.19244 4020 ft 115 kts 33°
2026-04-25 13:39 50.06670 7.19532 3714 ft 129 kts 349°
2026-04-25 13:40 50.07418 7.18810 3269 ft 134 kts 304°
2026-04-25 13:40 50.07621 7.17423 2806 ft 138 kts 263°
2026-04-25 13:40 50.07229 7.16076 2350 ft 145 kts 227°
2026-04-25 13:40 50.06319 7.15477 1992 ft 141 kts 180°
2026-04-25 13:41 50.05499 7.15992 1927 ft 123 kts 136°
2026-04-25 13:41 50.05116 7.17155 1990 ft 120 kts 114°
2026-04-25 13:41 50.04528 7.18075 1990 ft 121 kts 149°
2026-04-25 13:41 50.03721 7.18361 2015 ft 118 kts 180°
2026-04-25 13:42 50.02862 7.18367 1989 ft 126 kts 181°
2026-04-25 13:42 50.01987 7.18338 2023 ft 127 kts 176°
2026-04-25 13:42 50.01162 7.18909 2009 ft 131 kts 146°
2026-04-25 13:42 50.00408 7.19712 1995 ft 133 kts 149°
2026-04-25 13:43 49.99532 7.20229 2003 ft 133 kts 167°
2026-04-25 13:43 49.98631 7.20561 1985 ft 136 kts 167°
2026-04-25 13:43 49.97821 7.21110 2042 ft 121 kts 143°
2026-04-25 13:43 49.97149 7.21904 2141 ft 126 kts 142°
2026-04-25 13:44 49.96536 7.22900 2205 ft 129 kts 131°
2026-04-25 13:44 49.95967 7.24033 2197 ft 136 kts 128°
2026-04-25 13:44 49.95231 7.24865 2288 ft 131 kts 166°
2026-04-25 13:44 49.94361 7.24697 2372 ft 124 kts 210°
2026-04-25 13:45 49.93841 7.24270 2319 ft 131 kts 211°
2026-04-25 13:45 49.92830 7.23296 2415 ft 125 kts 217°
2026-04-25 13:45 49.92092 7.22563 2415 ft 129 kts 214°
2026-04-25 13:45 49.91282 7.21935 2491 ft 130 kts 181°
2026-04-25 13:46 49.91062 7.22879 2629 ft 115 kts 36°
2026-04-25 13:46 49.91737 7.23435 2421 ft 103 kts 21°
2026-04-25 13:46 49.92336 7.23928 2164 ft 89 kts 24°
2026-04-25 13:46 49.92847 7.24402 1838 ft 84 kts 27°
2026-04-25 13:47 49.93299 7.24848 1658 ft 68 kts 26°
2026-04-25 13:47 49.93640 7.25179 1632 ft 56 kts 31°
2026-04-25 13:47 49.94065 7.25609 1750 ft 76 kts 27°
2026-04-25 13:47 49.94537 7.26086 1886 ft 86 kts 27°
2026-04-25 13:48 49.95055 7.26576 2051 ft 88 kts 26°
2026-04-25 13:48 49.95615 7.27105 2134 ft 106 kts 27°
2026-04-25 13:48 49.96269 7.27693 2433 ft 103 kts 37°
2026-04-25 13:48 49.96279 7.28752 2587 ft 123 kts 141°
2026-04-25 13:49 49.95448 7.28635 2621 ft 130 kts 207°
2026-04-25 13:49 49.94643 7.27986 2692 ft 132 kts 211°
2026-04-25 13:49 49.93794 7.27358 2727 ft 134 kts 210°
2026-04-25 13:49 49.92971 7.26654 2792 ft 134 kts 212°
2026-04-25 13:50 49.92136 7.25949 2745 ft 141 kts 213°
2026-04-25 13:50 49.91282 7.25186 2752 ft 134 kts 211°
2026-04-25 13:50 49.90497 7.24526 2822 ft 127 kts 208°
2026-04-25 13:50 49.89743 7.23860 2920 ft 116 kts 228°
2026-04-25 13:51 49.89594 7.22848 3096 ft 97 kts 294°
2026-04-25 13:51 49.90236 7.22503 2940 ft 123 kts
2026-04-25 13:51 49.91087 7.22835 2587 ft 131 kts 18°
2026-04-25 13:51 49.91888 7.23463 2278 ft 124 kts 27°
2026-04-25 13:52 49.92497 7.24055 1984 ft 92 kts 29°
2026-04-25 13:52 49.93003 7.24553 1731 ft 88 kts 30°
2026-04-25 13:52 49.93501 7.25044 1641 ft 81 kts 28°
2026-04-25 13:52 49.93874 7.25397 1634 ft 31 kts 33°
2026-04-25 13:53 49.93933 7.25528 1637 ft 6 kts 105°
2026-04-25 13:53 49.93917 7.25594 1637 ft 5 kts 120°
2026-04-25 13:53 49.93861 7.25740 1634 ft 20 kts 123°
2026-04-25 13:53 49.93838 7.25889 1627 ft 14 kts 38°
2026-04-25 13:54 49.93981 7.26043 1622 ft 29 kts 32°
2026-04-25 13:54 49.94157 7.26223 1617 ft 32 kts 32°
2026-04-25 13:54 49.94291 7.26427 1611 ft 12 kts 70°
2026-04-25 13:54 49.94294 7.26439 1610 ft 0 kts 72°